,,Stat6,,Stat2,,Stat8,,Stat9,,Stat10,,Wind1,,Wind1,
time,status,PA1M_AVG,status,PR1M_SUM,status,RH1M_AVG,status,SR1M_AVG,status,TA1M_AVG,status,W1dAve1m,status,W1sAve1m,
2005-10-13, 00:00:00,VALID,917.667,VALID,0,VALID,98.571,VALID,0.0169808,VALID,19.8533,VALID,64,VALID,0.578852,
2005-10-13, 00:01:00,VALID,917.659,VALID,0,VALID,98.674,VALID,0.0509425,VALID,19.8249,VALID,64,VALID,0.720312,
2005-10-13, 00:02:00,VALID,917.652,VALID,0,VALID,98.7401,VALID,0,VALID,19.7561,VALID,64,VALID,0.822917,
2005-10-13, 00:03:00,VALID,917.627,VALID,0,VALID,98.9944,VALID,0.0339617,VALID,19.7308,VALID,64,VALID,0.899528,
2005-10-13, 00:04:00,VALID,917.611,VALID,0,VALID,99.2093,VALID,0.0169808,VALID,19.6856,VALID,64,VALID,0.748698,
2005-10-13, 00:05:00,VALID,917.618,VALID,0,VALID,99.2793,VALID,0.0509425,VALID,19.6401,VALID,64,VALID,0.566964,
2005-10-13, 00:06:00,VALID,917.618,VALID,0,VALID,99.4585,VALID,0.0339617,VALID,19.5944,VALID,66,VALID,0.318132,
2005-10-13, 00:07:00,VALID,917.62,VALID,0,VALID,99.7091,VALID,0.0169808,VALID,19.572,VALID,72,VALID,0.30907,
2005-10-13, 00:08:00,VALID,917.628,VALID,0,VALID,99.8934,VALID,0.0339617,VALID,19.573,VALID,83,VALID,0.514482,
2005-10-13, 00:09:00,VALID,917.612,VALID,0,VALID,99.882,VALID,0.0169808,VALID,19.5499,VALID,89,VALID,0.485119,
2005-10-13, 00:10:00,VALID,917.596,VALID,0,VALID,99.7815,VALID,0.0339617,VALID,19.5243,VALID,88,VALID,0.577934,
2005-10-13, 00:11:00,VALID,917.564,VALID,0,VALID,99.6455,VALID,0.0509425,VALID,19.5015,VALID,85,VALID,0.730808,
2005-10-13, 00:12:00,VALID,917.55,VALID,0,VALID,99.4229,VALID,0.0509425,VALID,19.4821,VALID,84,VALID,0.769097,
2005-10-13, 00:13:00,VALID,917.526,VALID,0,VALID,99.3009,VALID,0.0339617,VALID,19.4655,VALID,82,VALID,0.803089,
2005-10-13, 00:14:00,VALID,917.515,VALID,0,VALID,99.1699,VALID,0.0339617,VALID,19.4533,VALID,76,VALID,0.786086,
2005-10-13, 00:15:00,VALID,917.5,VALID,0,VALID,99.0071,VALID,0.0169808,VALID,19.4275,VALID,76,VALID,0.579723,
2005-10-13, 00:16:00,VALID,917.49,VALID,0,VALID,98.9639,VALID,0.0509425,VALID,19.4014,VALID,76,VALID,0.512005,
2005-10-13, 00:17:00,VALID,917.488,VALID,0,VALID,99.1114,VALID,-0.0509425,VALID,19.3663,VALID,76,VALID,0.423921,
2005-10-13, 00:18:00,VALID,917.48,VALID,0,VALID,99.1356,VALID,-0.0849042,VALID,19.341,VALID,76,VALID,0.419643,
2005-10-13, 00:19:00,VALID,917.464,VALID,0,VALID,99.203,VALID,-0.0509425,VALID,19.3258,VALID,76,VALID,0.438672,
2005-10-13, 00:20:00,VALID,917.451,VALID,0,VALID,99.1139,VALID,-0.0339617,VALID,19.2896,VALID,73,VALID,0.586115,
2005-10-13, 00:21:00,VALID,917.44,VALID,0,VALID,99.0224,VALID,-0.0679233,VALID,19.2734,VALID,65,VALID,0.691679,
2005-10-13, 00:22:00,VALID,917.405,VALID,0,VALID,98.6969,VALID,-0.0849042,VALID,19.2612,VALID,65,VALID,0.717448,
2005-10-13, 00:23:00,VALID,917.383,VALID,0,VALID,98.2887,VALID,-0.0679233,VALID,19.2582,VALID,65,VALID,0.433594,
2005-10-13, 00:24:00,VALID,917.367,VALID,0,VALID,98.1272,VALID,-0.0849042,VALID,19.2709,VALID,65,VALID,0.396129,
2005-10-13, 00:25:00,VALID,917.35,VALID,0,VALID,97.766,VALID,-0.0849042,VALID,19.2709,VALID,65,VALID,0.153819,
2005-10-13, 00:26:00,VALID,917.352,VALID,0,VALID,97.6491,VALID,-0.0509425,VALID,19.2774,VALID,65,VALID,0,
2005-10-13, 00:27:00,VALID,917.342,VALID,0,VALID,97.6224,VALID,-0.0679233,VALID,19.2868,VALID,65,VALID,0.105469,
2005-10-13, 00:28:00,VALID,917.345,VALID,0,VALID,97.6147,VALID,-0.0849042,VALID,19.3196,VALID,68,VALID,0.459413,
2005-10-13, 00:29:00,VALID,917.33,VALID,0,VALID,97.4469,VALID,-0.0679233,VALID,19.3194,VALID,97,VALID,0.68045,
2005-10-13, 00:30:00,VALID,917.309,VALID,0,VALID,97.1544,VALID,-0.0509425,VALID,19.3224,VALID,98,VALID,0.677455,
2005-10-13, 00:31:00,VALID,917.288,VALID,0,VALID,97.0387,VALID,-0.0679233,VALID,19.3482,VALID,98,VALID,0.790968,
2005-10-13, 00:32:00,VALID,917.245,VALID,0,VALID,96.8823,VALID,-0.101885,VALID,19.3773,VALID,98,VALID,0.570126,
2005-10-13, 00:33:00,VALID,917.224,VALID,0,VALID,96.9878,VALID,-0.0849042,VALID,19.4192,VALID,98,VALID,0.141474,
2005-10-13, 00:34:00,VALID,917.179,VALID,0,VALID,97.0336,VALID,-0.101885,VALID,19.4264,VALID,98,VALID,0.142857,
2005-10-13, 00:35:00,VALID,917.155,VALID,0,VALID,97.1926,VALID,-0.0849042,VALID,19.4036,VALID,98,VALID,0.281597,
2005-10-13, 00:36:00,VALID,917.123,VALID,0,VALID,97.4837,VALID,-0.0679233,VALID,19.4006,VALID,98,VALID,0.114025,
2005-10-13, 00:37:00,VALID,917.106,VALID,0,VALID,97.6351,VALID,-0.0509425,VALID,19.3777,VALID,98,VALID,0,
2005-10-13, 00:38:00,VALID,917.09,VALID,0,VALID,97.8233,VALID,-0.0509425,VALID,19.3549,VALID,98,VALID,0,
2005-10-13, 00:39:00,VALID,917.057,VALID,0,VALID,97.8284,VALID,-0.0339617,VALID,19.3219,VALID,98,VALID,0,
2005-10-13, 00:40:00,VALID,917.044,VALID,0,VALID,97.9225,VALID,-0.0679233,VALID,19.3127,VALID,98,VALID,0,
2005-10-13, 00:41:00,VALID,917.037,VALID,0,VALID,97.9949,VALID,-0.0679233,VALID,19.2809,VALID,98,VALID,0,
2005-10-13, 00:42:00,VALID,917.017,VALID,0,VALID,98.1323,VALID,-0.0509425,VALID,19.2545,VALID,98,VALID,0,
2005-10-13, 00:43:00,VALID,916.999,VALID,0,VALID,98.2632,VALID,-0.0169808,VALID,19.2381,VALID,98,VALID,0.0112179,
2005-10-13, 00:44:00,VALID,916.956,VALID,0,VALID,98.295,VALID,-0.0679233,VALID,19.2356,VALID,98,VALID,0.273793,
2005-10-13, 00:45:00,VALID,916.926,VALID,0,VALID,98.3179,VALID,-0.0339617,VALID,19.1966,VALID,86,VALID,0.34933,
2005-10-13, 00:46:00,VALID,916.883,VALID,0,VALID,98.3014,VALID,-0.0169808,VALID,19.187,VALID,55,VALID,0.285633,
2005-10-13, 00:47:00,VALID,916.844,VALID,0,VALID,98.2302,VALID,-0.0849042,VALID,19.1835,VALID,55,VALID,0.296697,
2005-10-13, 00:48:00,VALID,916.807,VALID,0,VALID,98.0064,VALID,-0.0339617,VALID,19.1962,VALID,52,VALID,0.503162,
2005-10-13, 00:49:00,VALID,916.774,VALID,0,VALID,97.8296,VALID,-0.0339617,VALID,19.2255,VALID,43,VALID,0.433789,
2005-10-13, 00:50:00,VALID,916.758,VALID,0,VALID,97.8436,VALID,-0.0169808,VALID,19.261,VALID,40,VALID,0.27077,
2005-10-13, 00:51:00,VALID,916.73,VALID,0,VALID,97.8296,VALID,-0.0169808,VALID,19.2804,VALID,40,VALID,0.11942,
2005-10-13, 00:52:00,VALID,916.729,VALID,0,VALID,97.7546,VALID,-0.0509425,VALID,19.2739,VALID,40,VALID,0.0628634,
2005-10-13, 00:53:00,VALID,916.707,VALID,0,VALID,97.4787,VALID,0,VALID,19.2448,VALID,40,VALID,0.00674716,
2005-10-13, 00:54:00,VALID,916.694,VALID,0,VALID,97.2994,VALID,-0.0849042,VALID,19.2061,VALID,40,VALID,0.198509,
2005-10-13, 00:55:00,VALID,916.696,VALID,0,VALID,97.2994,VALID,-0.0849042,VALID,19.1964,VALID,40,VALID,0.40843,
2005-10-13, 00:56:00,VALID,916.674,VALID,0,VALID,97.2879,VALID,-0.0169808,VALID,19.223,VALID,40,VALID,0.479469,
2005-10-13, 00:57:00,VALID,916.648,VALID,0,VALID,97.0539,VALID,-0.0339617,VALID,19.2515,VALID,40,VALID,0.442454,
2005-10-13, 00:58:00,VALID,916.634,VALID,0,VALID,96.853,VALID,-0.0339617,VALID,19.2838,VALID,40,VALID,0.314546,
2005-10-13, 00:59:00,VALID,916.619,VALID,0,VALID,96.7742,VALID,-0.101885,VALID,19.2938,VALID,40,VALID,0.291016,
2005-10-13, 01:00:00,VALID,916.605,VALID,0,VALID,96.8123,VALID,-0.0849042,VALID,19.2871,VALID,40,VALID,0.174733,
2005-10-13, 01:01:00,VALID,916.597,VALID,0,VALID,96.8874,VALID,-0.0509425,VALID,19.2679,VALID,40,VALID,0.0329649,
2005-10-13, 01:02:00,VALID,916.585,VALID,0,VALID,97.0641,VALID,-0.0509425,VALID,19.2451,VALID,40,VALID,0,
2005-10-13, 01:03:00,VALID,916.601,VALID,0,VALID,97.162,VALID,0.0169808,VALID,19.1855,VALID,40,VALID,0.0374273,
2005-10-13, 01:04:00,VALID,916.589,VALID,0,VALID,97.3095,VALID,0.0339617,VALID,19.1532,VALID,40,VALID,0,
2005-10-13, 01:05:00,VALID,916.588,VALID,0,VALID,97.4952,VALID,0.0169808,VALID,19.1271,VALID,40,VALID,0.145032,
2005-10-13, 01:06:00,VALID,916.584,VALID,0,VALID,97.6783,VALID,0,VALID,19.1115,VALID,63,VALID,0.503472,
2005-10-13, 01:07:00,VALID,916.575,VALID,0,VALID,97.7711,VALID,0.0339617,VALID,19.0988,VALID,101,VALID,0.556046,
2005-10-13, 01:08:00,VALID,916.568,VALID,0,VALID,97.9403,VALID,0.0509425,VALID,19.076,VALID,110,VALID,0.779688,
2005-10-13, 01:09:00,VALID,916.559,VALID,0,VALID,97.9593,VALID,0.0509425,VALID,19.0693,VALID,123,VALID,0.669876,
2005-10-13, 01:10:00,VALID,916.532,VALID,0,VALID,97.9059,VALID,0.0169808,VALID,19.0469,VALID,139,VALID,0.482851,
2005-10-13, 01:11:00,VALID,916.52,VALID,0,VALID,98.3141,VALID,0.0169808,VALID,19.0377,VALID,142,VALID,0.765451,
2005-10-13, 01:12:00,VALID,916.504,VALID,0,VALID,98.6422,VALID,-0.0509425,VALID,19.0357,VALID,134,VALID,0.719893,
2005-10-13, 01:13:00,VALID,916.491,VALID,0,VALID,99.601,VALID,-0.101885,VALID,19.058,VALID,132,VALID,0.794567,
2005-10-13, 01:14:00,VALID,916.479,VALID,0,VALID,99.9563,VALID,-0.101885,VALID,19.0615,VALID,137,VALID,0.720656,
2005-10-13, 01:15:00,VALID,916.48,VALID,0,VALID,100,VALID,-0.101885,VALID,19.0426,VALID,124,VALID,0.694382,
2005-10-13, 01:16:00,VALID,916.48,VALID,0,VALID,100,VALID,-0.0339617,VALID,19.0126,VALID,131,VALID,0.601563,
2005-10-13, 01:17:00,VALID,916.46,VALID,0,VALID,100,VALID,-0.0169808,VALID,18.9962,VALID,133,VALID,0.313045,
2005-10-13, 01:18:00,VALID,916.437,VALID,0,VALID,100,VALID,0,VALID,18.9731,VALID,129,VALID,0.305596,
2005-10-13, 01:19:00,VALID,916.408,VALID,0,VALID,100,VALID,0.0509425,VALID,18.9341,VALID,126,VALID,0.480469,
2005-10-13, 01:20:00,VALID,916.381,VALID,0,VALID,100,VALID,0.0169808,VALID,18.9249,VALID,115,VALID,0.504261,
2005-10-13, 01:21:00,VALID,916.373,VALID,0,VALID,100,VALID,0.0339617,VALID,18.8661,VALID,115,VALID,0.197173,
2005-10-13, 01:22:00,VALID,916.375,VALID,0,VALID,100,VALID,0.0339617,VALID,18.8022,VALID,115,VALID,0.170312,
2005-10-13, 01:23:00,VALID,916.371,VALID,0,VALID,100,VALID,0.0339617,VALID,18.7275,VALID,115,VALID,0,
2005-10-13, 01:24:00,VALID,916.375,VALID,0,VALID,100,VALID,0,VALID,18.6659,VALID,115,VALID,0,
2005-10-13, 01:25:00,VALID,916.364,VALID,0,VALID,100,VALID,0.0169808,VALID,18.6306,VALID,115,VALID,0,
2005-10-13, 01:26:00,VALID,916.358,VALID,0,VALID,100,VALID,0.0169808,VALID,18.6045,VALID,115,VALID,0,
2005-10-13, 01:27:00,VALID,916.347,VALID,0,VALID,100,VALID,0.0849042,VALID,18.5919,VALID,115,VALID,0.0381747,
2005-10-13, 01:28:00,VALID,916.326,VALID,0,VALID,100,VALID,0.0339617,VALID,18.5534,VALID,94,VALID,0.414063,
2005-10-13, 01:29:00,VALID,916.315,VALID,0,VALID,100,VALID,0,VALID,18.5047,VALID,54,VALID,0.673874,
2005-10-13, 01:30:00,VALID,916.294,VALID,0,VALID,100,VALID,0.0679233,VALID,18.534,VALID,54,VALID,0.859375,
2005-10-13, 01:31:00,VALID,916.299,VALID,0,VALID,100,VALID,0.0339617,VALID,18.5695,VALID,69,VALID,0.712936,
2005-10-13, 01:32:00,VALID,916.313,VALID,0,VALID,100,VALID,-0.0169808,VALID,18.5667,VALID,84,VALID,0.12066,
2005-10-13, 01:33:00,VALID,916.322,VALID,0,VALID,100,VALID,-0.0339617,VALID,18.5511,VALID,84,VALID,0,
2005-10-13, 01:34:00,VALID,916.326,VALID,0,VALID,100,VALID,-0.0509425,VALID,18.5478,VALID,84,VALID,0,
2005-10-13, 01:35:00,VALID,916.334,VALID,0,VALID,100,VALID,0,VALID,18.5582,VALID,87,VALID,0.652253,
2005-10-13, 01:36:00,VALID,916.33,VALID,0,VALID,100,VALID,0,VALID,18.5873,VALID,109,VALID,1.13175,
2005-10-13, 01:37:00,VALID,916.345,VALID,0,VALID,100,VALID,0.0169808,VALID,18.5967,VALID,123,VALID,0.949855,
2005-10-13, 01:38:00,VALID,916.355,VALID,0,VALID,100,VALID,-0.0339617,VALID,18.584,VALID,131,VALID,0.941406,
2005-10-13, 01:39:00,VALID,916.352,VALID,0,VALID,100,VALID,0,VALID,18.5811,VALID,129,VALID,0.943407,
2005-10-13, 01:40:00,VALID,916.353,VALID,0,VALID,100,VALID,-0.0169808,VALID,18.594,VALID,134,VALID,1.22396,
2005-10-13, 01:41:00,VALID,916.346,VALID,0,VALID,100,VALID,-0.0169808,VALID,18.6394,VALID,121,VALID,1.08166,
2005-10-13, 01:42:00,VALID,916.328,VALID,0,VALID,100,VALID,-0.0849042,VALID,18.6553,VALID,119,VALID,1.13872,
2005-10-13, 01:43:00,VALID,916.321,VALID,0,VALID,100,VALID,-0.0339617,VALID,18.6682,VALID,106,VALID,1.20605,
2005-10-13, 01:44:00,VALID,916.32,VALID,0,VALID,100,VALID,-0.0679233,VALID,18.6521,VALID,106,VALID,0.981055,
2005-10-13, 01:45:00,VALID,916.307,VALID,0,VALID,100,VALID,-0.0169808,VALID,18.6387,VALID,106,VALID,1.27823,
2005-10-13, 01:46:00,VALID,916.303,VALID,0,VALID,100,VALID,-0.0169808,VALID,18.6263,VALID,108,VALID,1.15086,
2005-10-13, 01:47:00,VALID,916.285,VALID,0,VALID,100,VALID,-0.0169808,VALID,18.6263,VALID,99,VALID,1.34756,
2005-10-13, 01:48:00,VALID,916.272,VALID,0,VALID,100,VALID,-0.0339617,VALID,18.6037,VALID,103,VALID,1.15199,
2005-10-13, 01:49:00,VALID,916.25,VALID,0,VALID,100,VALID,-0.0339617,VALID,18.5677,VALID,97,VALID,0.856957,
2005-10-13, 01:50:00,VALID,916.224,VALID,0,VALID,100,VALID,-0.0169808,VALID,18.5425,VALID,102,VALID,0.837754,
2005-10-13, 01:51:00,VALID,916.205,VALID,0,VALID,100,VALID,0,VALID,18.4899,VALID,98,VALID,0.794207,
2005-10-13, 01:52:00,VALID,916.17,VALID,0,VALID,100,VALID,-0.0679233,VALID,18.4678,VALID,92,VALID,0.849355,
2005-10-13, 01:53:00,VALID,916.172,VALID,0,VALID,100,VALID,-0.0679233,VALID,18.4427,VALID,95,VALID,0.822218,
2005-10-13, 01:54:00,VALID,916.176,VALID,0,VALID,100,VALID,-0.0849042,VALID,18.3968,VALID,95,VALID,0.698289,
2005-10-13, 01:55:00,VALID,916.175,VALID,0,VALID,100,VALID,-0.0169808,VALID,18.3843,VALID,95,VALID,0.692224,
2005-10-13, 01:56:00,VALID,916.172,VALID,0,VALID,100,VALID,-0.0339617,VALID,18.3647,VALID,96,VALID,0.659339,
2005-10-13, 01:57:00,VALID,916.167,VALID,0,VALID,100,VALID,0,VALID,18.3516,VALID,103,VALID,0.675195,
2005-10-13, 01:58:00,VALID,916.178,VALID,0,VALID,100,VALID,-0.0169808,VALID,18.3391,VALID,103,VALID,0.543636,
2005-10-13, 01:59:00,VALID,916.171,VALID,0,VALID,100,VALID,-0.0169808,VALID,18.329,VALID,103,VALID,0.584666,
2005-10-13, 02:00:00,VALID,916.172,VALID,0,VALID,100,VALID,-0.0169808,VALID,18.3324,VALID,103,VALID,0.696265,
2005-10-13, 02:01:00,VALID,916.163,VALID,0,VALID,100,VALID,0,VALID,18.3615,VALID,106,VALID,0.659801,
2005-10-13, 02:02:00,VALID,916.159,VALID,0,VALID,100,VALID,0,VALID,18.3804,VALID,125,VALID,0.792436,
2005-10-13, 02:03:00,VALID,916.161,VALID,0,VALID,100,VALID,0,VALID,18.3869,VALID,130,VALID,0.829268,
2005-10-13, 02:04:00,VALID,916.169,VALID,0,VALID,100,VALID,-0.0169808,VALID,18.3905,VALID,147,VALID,0.968229,
2005-10-13, 02:05:00,VALID,916.17,VALID,0,VALID,100,VALID,0,VALID,18.4099,VALID,148,VALID,0.975229,
2005-10-13, 02:06:00,VALID,916.192,VALID,0,VALID,100,VALID,-0.0679233,VALID,18.4357,VALID,146,VALID,0.962798,
2005-10-13, 02:07:00,VALID,916.201,VALID,0,VALID,100,VALID,-0.0509425,VALID,18.468,VALID,141,VALID,1.10037,
2005-10-13, 02:08:00,VALID,916.211,VALID,0,VALID,100,VALID,-0.0679233,VALID,18.4879,VALID,141,VALID,1.1689,
2005-10-13, 02:09:00,VALID,916.22,VALID,0,VALID,100,VALID,-0.0509425,VALID,18.5003,VALID,137,VALID,1.06463,
2005-10-13, 02:10:00,VALID,916.22,VALID,0,VALID,100,VALID,0.0169808,VALID,18.5195,VALID,135,VALID,0.926153,
2005-10-13, 02:11:00,VALID,916.223,VALID,0,VALID,100,VALID,0,VALID,18.5294,VALID,134,VALID,0.445884,
2005-10-13, 02:12:00,VALID,916.202,VALID,0,VALID,100,VALID,0,VALID,18.51,VALID,123,VALID,0.603161,
2005-10-13, 02:13:00,VALID,916.196,VALID,0,VALID,100,VALID,-0.0169808,VALID,18.5006,VALID,99,VALID,0.999112,
2005-10-13, 02:14:00,VALID,916.182,VALID,0,VALID,100,VALID,-0.0679233,VALID,18.5167,VALID,107,VALID,1.07919,
2005-10-13, 02:15:00,VALID,916.172,VALID,0,VALID,100,VALID,-0.0169808,VALID,18.5458,VALID,116,VALID,0.821023,
2005-10-13, 02:16:00,VALID,916.155,VALID,0,VALID,100,VALID,-0.101885,VALID,18.5785,VALID,119,VALID,0.93564,
2005-10-13, 02:17:00,VALID,916.137,VALID,0,VALID,100,VALID,-0.0509425,VALID,18.6041,VALID,112,VALID,0.906808,
2005-10-13, 02:18:00,VALID,916.108,VALID,0,VALID,100,VALID,-0.0509425,VALID,18.6133,VALID,103,VALID,0.714844,
2005-10-13, 02:19:00,VALID,916.108,VALID,0,VALID,100,VALID,-0.0509425,VALID,18.5488,VALID,71,VALID,0.865282,
2005-10-13, 02:20:00,VALID,916.105,VALID,0,VALID,100,VALID,-0.0339617,VALID,18.555,VALID,77,VALID,0.858333,
2005-10-13, 02:21:00,VALID,916.079,VALID,0,VALID,100,VALID,-0.0169808,VALID,18.5582,VALID,86,VALID,1.03391,
2005-10-13, 02:22:00,VALID,916.087,VALID,0,VALID,100,VALID,-0.0169808,VALID,18.5811,VALID,87,VALID,0.823879,
2005-10-13, 02:23:00,VALID,916.094,VALID,0,VALID,100,VALID,-0.0169808,VALID,18.6074,VALID,94,VALID,0.980374,
2005-10-13, 02:24:00,VALID,916.107,VALID,0,VALID,100,VALID,-0.0169808,VALID,18.6327,VALID,109,VALID,1.0536,
2005-10-13, 02:25:00,VALID,916.143,VALID,0,VALID,100,VALID,-0.0509425,VALID,18.6622,VALID,124,VALID,0.748047,
2005-10-13, 02:26:00,VALID,916.151,VALID,0,VALID,100,VALID,-0.0339617,VALID,18.6752,VALID,131,VALID,0.828125,
2005-10-13, 02:27:00,VALID,916.174,VALID,0,VALID,100,VALID,-0.0509425,VALID,18.6682,VALID,152,VALID,1.32358,
2005-10-13, 02:28:00,VALID,916.186,VALID,0,VALID,100,VALID,-0.0169808,VALID,18.6747,VALID,140,VALID,0.875762,
2005-10-13, 02:29:00,VALID,916.192,VALID,0,VALID,100,VALID,0,VALID,18.662,VALID,130,VALID,1.00893,
2005-10-13, 02:30:00,VALID,916.182,VALID,0,VALID,100,VALID,-0.0169808,VALID,18.6364,VALID,127,VALID,0.780887,
2005-10-13, 02:31:00,VALID,916.179,VALID,0,VALID,100,VALID,-0.0509425,VALID,18.6039,VALID,121,VALID,1.05868,
2005-10-13, 02:32:00,VALID,916.16,VALID,0,VALID,100,VALID,-0.0339617,VALID,18.6138,VALID,139,VALID,1.15234,
2005-10-13, 02:33:00,VALID,916.138,VALID,0,VALID,100,VALID,-0.0679233,VALID,18.614,VALID,133,VALID,0.798437,
2005-10-13, 02:34:00,VALID,916.127,VALID,0,VALID,100,VALID,-0.0509425,VALID,18.5942,VALID,132,VALID,0.99564,
2005-10-13, 02:35:00,VALID,916.093,VALID,0,VALID,100,VALID,-0.0679233,VALID,18.5813,VALID,125,VALID,0.726372,
2005-10-13, 02:36:00,VALID,916.083,VALID,0,VALID,100,VALID,-0.0509425,VALID,18.5748,VALID,139,VALID,0.575076,
2005-10-13, 02:37:00,VALID,916.058,VALID,0,VALID,100,VALID,-0.0849042,VALID,18.5651,VALID,117,VALID,0.456287,
2005-10-13, 02:38:00,VALID,916.039,VALID,0,VALID,100,VALID,-0.0849042,VALID,18.549,VALID,136,VALID,0.533053,
2005-10-13, 02:39:00,VALID,916.026,VALID,0,VALID,100,VALID,-0.0679233,VALID,18.5626,VALID,139,VALID,0.470022,
2005-10-13, 02:40:00,VALID,916.013,VALID,0,VALID,100,VALID,-0.101885,VALID,18.5557,VALID,139,VALID,0.325521,
2005-10-13, 02:41:00,VALID,915.996,VALID,0,VALID,100,VALID,-0.0169808,VALID,18.5557,VALID,132,VALID,0.302148,
2005-10-13, 02:42:00,VALID,915.987,VALID,0,VALID,100,VALID,-0.0849042,VALID,18.5621,VALID,129,VALID,0.192951,
2005-10-13, 02:43:00,VALID,915.991,VALID,0,VALID,100,VALID,-0.0849042,VALID,18.5788,VALID,129,VALID,0.342901,
2005-10-13, 02:44:00,VALID,915.983,VALID,0,VALID,100,VALID,-0.0849042,VALID,18.5721,VALID,129,VALID,0.173438,
2005-10-13, 02:45:00,VALID,915.973,VALID,0,VALID,100,VALID,-0.101885,VALID,18.5748,VALID,129,VALID,0.35293,
2005-10-13, 02:46:00,VALID,915.976,VALID,0,VALID,100,VALID,-0.0849042,VALID,18.5559,VALID,126,VALID,0.578906,
2005-10-13, 02:47:00,VALID,915.975,VALID,0,VALID,100,VALID,-0.0509425,VALID,18.5296,VALID,109,VALID,0.804874,
2005-10-13, 02:48:00,VALID,915.978,VALID,0,VALID,100,VALID,-0.0339617,VALID,18.5236,VALID,102,VALID,1.08503,
2005-10-13, 02:49:00,VALID,915.963,VALID,0,VALID,100,VALID,-0.0679233,VALID,18.5072,VALID,107,VALID,1.18532,
2005-10-13, 02:50:00,VALID,915.964,VALID,0,VALID,100,VALID,-0.0679233,VALID,18.5036,VALID,112,VALID,0.997332,
2005-10-13, 02:51:00,VALID,915.937,VALID,0,VALID,100,VALID,-0.0339617,VALID,18.5167,VALID,94,VALID,1.04918,
2005-10-13, 02:52:00,VALID,915.943,VALID,0,VALID,100,VALID,-0.0339617,VALID,18.5162,VALID,84,VALID,0.768293,
2005-10-13, 02:53:00,VALID,915.943,VALID,0,VALID,100,VALID,-0.0169808,VALID,18.5102,VALID,87,VALID,0.643043,
2005-10-13, 02:54:00,VALID,915.931,VALID,0,VALID,100,VALID,-0.0509425,VALID,18.4906,VALID,80,VALID,0.56875,
2005-10-13, 02:55:00,VALID,915.931,VALID,0,VALID,100,VALID,-0.0679233,VALID,18.4745,VALID,83,VALID,0.720117,
2005-10-13, 02:56:00,VALID,915.917,VALID,0,VALID,100,VALID,-0.0509425,VALID,18.4747,VALID,98,VALID,0.586617,
2005-10-13, 02:57:00,VALID,915.917,VALID,0,VALID,100,VALID,-0.0679233,VALID,18.4844,VALID,100,VALID,0.512173,
2005-10-13, 02:58:00,VALID,915.904,VALID,0,VALID,100,VALID,-0.0679233,VALID,18.4745,VALID,100,VALID,0.547049,
2005-10-13, 02:59:00,VALID,915.886,VALID,0,VALID,100,VALID,-0.0339617,VALID,18.4874,VALID,106,VALID,0.705357,
2005-10-13, 03:00:00,VALID,915.888,VALID,0,VALID,100,VALID,-0.0509425,VALID,18.5043,VALID,110,VALID,0.543155,
2005-10-13, 03:01:00,VALID,915.889,VALID,0,VALID,100,VALID,-0.0849042,VALID,18.5008,VALID,110,VALID,0.57431,
2005-10-13, 03:02:00,VALID,915.888,VALID,0,VALID,100,VALID,-0.0849042,VALID,18.4941,VALID,110,VALID,0.507254,
2005-10-13, 03:03:00,VALID,915.88,VALID,0,VALID,100,VALID,-0.101885,VALID,18.5135,VALID,110,VALID,0.348292,
2005-10-13, 03:04:00,VALID,915.86,VALID,0,VALID,100,VALID,-0.101885,VALID,18.5036,VALID,110,VALID,0.622917,
2005-10-13, 03:05:00,VALID,915.851,VALID,0,VALID,100,VALID,-0.0849042,VALID,18.5202,VALID,110,VALID,0.53782,
2005-10-13, 03:06:00,VALID,915.854,VALID,0,VALID,100,VALID,-0.0849042,VALID,18.5363,VALID,110,VALID,0.159961,
2005-10-13, 03:07:00,VALID,915.838,VALID,0,VALID,100,VALID,-0.0679233,VALID,18.5458,VALID,110,VALID,0.00690407,
2005-10-13, 03:08:00,VALID,915.831,VALID,0,VALID,100,VALID,-0.0849042,VALID,18.5559,VALID,110,VALID,0.0367543,
2005-10-13, 03:09:00,VALID,915.845,VALID,0,VALID,100,VALID,-0.0679233,VALID,18.5654,VALID,110,VALID,0.00364583,
2005-10-13, 03:10:00,VALID,915.839,VALID,0,VALID,100,VALID,-0.0679233,VALID,18.5649,VALID,110,VALID,0,
2005-10-13, 03:11:00,VALID,915.857,VALID,0,VALID,100,VALID,-0.101885,VALID,18.5882,VALID,110,VALID,0,
2005-10-13, 03:12:00,VALID,915.873,VALID,0,VALID,100,VALID,-0.0849042,VALID,18.6041,VALID,110,VALID,0,
2005-10-13, 03:13:00,VALID,915.878,VALID,0,VALID,100,VALID,-0.0849042,VALID,18.6007,VALID,110,VALID,0,
2005-10-13, 03:14:00,VALID,915.888,VALID,0,VALID,100,VALID,-0.0849042,VALID,18.6009,VALID,110,VALID,0.0291193,
2005-10-13, 03:15:00,VALID,915.888,VALID,0,VALID,100,VALID,-0.0679233,VALID,18.5778,VALID,110,VALID,0.334821,
2005-10-13, 03:16:00,VALID,915.875,VALID,0,VALID,100,VALID,-0.0849042,VALID,18.5748,VALID,110,VALID,0.598958,
2005-10-13, 03:17:00,VALID,915.876,VALID,0,VALID,100,VALID,-0.0339617,VALID,18.564,VALID,113,VALID,0.591844,
2005-10-13, 03:18:00,VALID,915.869,VALID,0,VALID,100,VALID,0.0169808,VALID,18.5737,VALID,110,VALID,0.496094,
2005-10-13, 03:19:00,VALID,915.86,VALID,0,VALID,100,VALID,0.0169808,VALID,18.5833,VALID,134,VALID,0.921274,
2005-10-13, 03:20:00,VALID,915.865,VALID,0,VALID,100,VALID,0.0509425,VALID,18.6124,VALID,129,VALID,1.07143,
2005-10-13, 03:21:00,VALID,915.852,VALID,0,VALID,100,VALID,0.0679233,VALID,18.6281,VALID,122,VALID,0.598366,
2005-10-13, 03:22:00,VALID,915.846,VALID,0,VALID,100,VALID,0.0509425,VALID,18.6608,VALID,127,VALID,0.633929,
2005-10-13, 03:23:00,VALID,915.839,VALID,0,VALID,100,VALID,0.0339617,VALID,18.6802,VALID,150,VALID,0.521307,
2005-10-13, 03:24:00,VALID,915.838,VALID,0,VALID,100,VALID,0,VALID,18.6934,VALID,140,VALID,0.611192,
2005-10-13, 03:25:00,VALID,915.839,VALID,0,VALID,100,VALID,0.0509425,VALID,18.6894,VALID,133,VALID,0.292969,
2005-10-13, 03:26:00,VALID,915.827,VALID,0,VALID,99.9954,VALID,0.0339617,VALID,18.6961,VALID,113,VALID,0.173828,
2005-10-13, 03:27:00,VALID,915.824,VALID,0,VALID,99.9062,VALID,0.0169808,VALID,18.6961,VALID,109,VALID,0.511364,
2005-10-13, 03:28:00,VALID,915.813,VALID,0,VALID,99.7574,VALID,0.0509425,VALID,18.6931,VALID,99,VALID,0.581659,
2005-10-13, 03:29:00,VALID,915.792,VALID,0,VALID,99.6696,VALID,0.0339617,VALID,18.7028,VALID,95,VALID,0.525521,
2005-10-13, 03:30:00,VALID,915.782,VALID,0,VALID,99.6124,VALID,0.0339617,VALID,18.6994,VALID,82,VALID,0.665777,
2005-10-13, 03:31:00,VALID,915.763,VALID,0,VALID,99.4471,VALID,0.0679233,VALID,18.7028,VALID,82,VALID,0.749219,
2005-10-13, 03:32:00,VALID,915.756,VALID,0,VALID,99.2144,VALID,0.0509425,VALID,18.68,VALID,82,VALID,0.833147,
2005-10-13, 03:33:00,VALID,915.751,VALID,0,VALID,99.0466,VALID,0,VALID,18.6777,VALID,82,VALID,0.593085,
2005-10-13, 03:34:00,VALID,915.735,VALID,0,VALID,99.0059,VALID,0.0169808,VALID,18.6445,VALID,75,VALID,0.573958,
2005-10-13, 03:35:00,VALID,915.727,VALID,0,VALID,99.0224,VALID,-0.0169808,VALID,18.6382,VALID,75,VALID,0.31343,
2005-10-13, 03:36:00,VALID,915.701,VALID,0,VALID,99.0008,VALID,0,VALID,18.6221,VALID,75,VALID,0.267857,
2005-10-13, 03:37:00,VALID,915.684,VALID,0,VALID,98.9995,VALID,0,VALID,18.6059,VALID,75,VALID,0.015625,